1508799600.9,13245,9.44,73042.3,-5.77,-7.11,-7.11,0,*54
1508799602.1,13246,9.44,73060.0,-5.79,-7.15,-7.11,0,*5D
1508799603.35,13247,9.44,73052.8,-5.75,-7.31,-7.31,0,*54
1508799604.62,13248,9.44,73056.3,-5.77,-7.27,-7.27,0,*59
1508799605.89,13249,9.44,73056.5,-5.77,-6.97,-6.97,0,*58
1508799607.11,13250,9.44,73048.5,-5.77,-6.89,-6.85,0,*5C
1508799608.34,13251,9.44,73000.8,-5.77,-6.77,-6.77,0,*51
1508799609.59,13252,9.44,73034.8,-5.77,-6.97,-7.11,0,*5D
1508799610.86,13253,9.44,73030.3,-5.77,-7.01,-7.01,0,*53
1508799612.11,13254,9.44,73012.5,-5.79,-6.97,-6.97,0,*5A
1508799613.36,13255,9.44,73010.3,-5.77,-6.89,-6.97,0,*5A
1508799614.58,13256,9.44,73034.8,-5.77,-6.89,-6.89,0,*56
1508799615.85,13257,9.44,73028.5,-5.77,-6.97,-6.97,0,*57
1508799617.1,13258,9.44,73024.0,-5.77,-6.89,-6.97,0,*57
1508799618.32,13259,9.44,73030.8,-5.77,-6.85,-6.85,0,*59
1508799619.52,13260,9.44,73042.8,-5.79,-6.77,-6.85,0,*50
1508799620.74,13261,9.44,73050.3,-5.77,-6.77,-6.73,0,*56
1508799621.97,13262,9.44,73032.8,-5.77,-6.77,-6.73,0,*55
1508799623.19,13263,9.44,73022.5,-5.77,-6.85,-6.73,0,*59
1508799624.41,13264,9.44,73020.5,-5.77,-6.85,-6.85,0,*57
1508799625.61,13265,9.44,73014.3,-5.79,-6.89,-6.89,0,*58
1508799626.81,13266,9.44,73042.0,-5.79,-6.77,-6.85,0,*56
1508799628.03,13267,9.44,73020.3,-5.77,-6.85,-6.77,0,*59
1508799629.25,13268,9.5,73032.3,-5.77,-6.85,-6.77,0,*56
1508799630.5,13269,9.44,73020.5,-5.77,-6.77,-6.63,0,*5F
1508799631.7,13270,9.44,73020.8,-5.79,-6.73,-6.73,0,*5C
1508799632.92,13271,9.44,73014.0,-5.75,-6.93,-6.85,0,*56
1508799634.14,13272,9.44,73022.3,-5.77,-6.85,-6.89,0,*5C
1508799635.35,13273,9.44,73026.3,-5.75,-6.85,-6.81,0,*57
1508799636.59,13274,9.44,73020.8,-5.77,-6.97,-6.85,0,*55
1508799637.86,13275,9.44,73018.5,-5.77,-7.01,-7.01,0,*57
1508799639.14,13276,9.44,73022.8,-5.77,-6.97,-6.97,0,*54
1508799640.41,13277,9.44,73032.8,-5.77,-6.97,-7.01,0,*5B
1508799641.63,13278,9.44,73030.8,-5.77,-6.89,-6.89,0,*5A
1508799642.83,13279,9.44,73036.8,-5.75,-6.85,-6.77,0,*54
1508799644.05,13280,9.44,73034.8,-5.77,-6.77,-6.77,0,*5D
1508799645.25,13281,9.44,73050.8,-5.75,-6.81,-6.73,0,*53
1508799646.45,13282,9.44,73016.5,-5.75,-6.73,-6.73,0,*5D
1508799647.65,13283,9.44,73018.0,-5.75,-6.81,-6.85,0,*58
1508799648.87,13284,9.44,73038.0,-5.77,-6.85,-6.89,0,*55
1508799650.09,13285,9.44,73040.3,-5.77,-6.85,-6.85,0,*58
1508799651.37,13286,9.44,73022.3,-5.77,-6.97,-6.97,0,*5B
1508799652.61,13287,9.44,72990.5,-5.77,-6.89,-6.97,0,*55
1508799653.86,13288,9.5,73038.0,-5.77,-6.85,-6.97,0,*56
1508799655.1,13289,9.44,73012.0,-5.77,-6.89,-6.97,0,*5B
1508799656.29,13290,9.5,73006.0,-5.75,-6.69,-6.69,0,*5E
1508799657.52,13291,9.44,73012.8,-5.77,-6.77,-6.73,0,*59
1508799658.71,13292,9.44,73034.5,-5.79,-6.85,-6.85,0,*50
1508799659.93,13293,9.44,73022.5,-5.77,-6.89,-6.89,0,*5F
1508799661.16,13294,9.44,73030.0,-5.77,-6.89,-6.89,0,*58
1508799662.38,13295,9.44,73040.5,-5.77,-6.89,-6.89,0,*59
1508799663.6,13296,9.44,73018.0,-5.77,-6.85,-6.85,0,*5A
1508799664.84,13297,9.44,73034.3,-5.77,-6.73,-6.63,0,*5A
1508799666.11,13298,9.44,73026.8,-5.77,-6.63,-6.63,0,*54
1508799667.38,13299,9.44,73032.0,-5.77,-6.63,-6.63,0,*55
1508799668.6,13300,9.44,73028.3,-5.79,-6.63,-6.59,0,*53
1508799669.82,13301,9.44,73048.5,-5.79,-6.63,-6.59,0,*52
1508799671.04,13302,9.44,73020.0,-5.77,-6.59,-6.59,0,*56
1508799672.29,13303,9.44,73044.5,-5.77,-6.63,-6.59,0,*5E
1508799673.51,13304,9.44,73042.0,-5.77,-6.73,-6.73,0,*50
1508799674.77,13305,9.44,73062.3,-5.77,-6.63,-6.63,0,*51
1508799675.97,13306,9.44,73044.0,-5.75,-6.59,-6.73,0,*58
1508799677.17,13307,9.5,73038.0,-5.75,-6.69,-6.73,0,*5A
1508799678.37,13308,9.44,73034.5,-5.75,-6.69,-6.81,0,*58
1508799679.57,13309,9.44,73042.3,-5.75,-6.73,-6.81,0,*52
1508799680.76,13310,9.44,73024.0,-5.75,-6.69,-6.59,0,*54
1508799681.97,13311,9.44,73036.8,-5.75,-6.59,-6.59,0,*56
1508799683.16,13312,9.44,73056.5,-5.75,-6.69,-6.59,0,*56
1508799684.43,13313,9.44,73048.3,-5.77,-6.63,-6.63,0,*56
1508799685.63,13314,9.44,73032.0,-5.75,-6.59,-6.59,0,*53
1508799686.83,13315,9.44,73022.5,-5.75,-6.73,-6.81,0,*5F
1508799688.04,13316,9.44,73032.0,-5.75,-6.73,-6.81,0,*5C
1508799689.24,13317,9.44,73044.3,-5.75,-6.73,-6.81,0,*5D
1508799690.46,13318,9.44,73022.0,-5.77,-6.85,-6.85,0,*5D
1508799691.73,13319,9.44,73034.8,-5.77,-6.97,-6.97,0,*5C
1508799692.93,13320,9.44,73030.0,-5.75,-6.81,-6.85,0,*50
1508799694.14,13321,9.44,73036.8,-5.75,-6.81,-6.81,0,*55
1508799695.34,13322,9.44,73024.8,-5.75,-6.73,-6.73,0,*56
1508799696.53,13323,9.44,73050.5,-5.75,-6.69,-6.69,0,*57
1508799697.72,13324,9.44,73032.3,-5.75,-6.69,-6.59,0,*53
1508799698.92,13325,9.5,73016.0,-5.75,-6.69,-6.59,0,*52
1508799700.14,13326,9.44,73028.8,-5.77,-6.73,-6.77,0,*54
1508799701.33,13327,9.44,73032.5,-5.75,-6.69,-6.69,0,*53
1508799702.52,13328,9.44,73032.3,-5.75,-6.69,-6.69,0,*5C
1508799703.72,13329,9.44,73028.5,-5.75,-6.59,-6.69,0,*5E
1508799704.91,13330,9.44,73062.0,-5.75,-6.73,-6.73,0,*55
1508799706.1,13331,9.44,73050.3,-5.75,-6.73,-6.69,0,*5F
1508799707.33,13332,9.44,73038.5,-5.77,-6.77,-6.77,0,*55
1508799708.58,13333,9.44,73042.5,-5.77,-6.73,-6.63,0,*55
1508799709.77,13334,9.44,73040.5,-5.75,-6.73,-6.73,0,*51
1508799711.01,13335,9.44,73022.8,-5.77,-6.63,-6.73,0,*53
1508799712.21,13336,9.44,73040.0,-5.75,-6.73,-6.69,0,*58
1508799713.4,13337,9.44,73032.8,-5.75,-6.69,-6.59,0,*51
1508799714.6,13338,9.44,73020.3,-5.75,-6.85,-6.81,0,*59
1508799715.84,13339,9.44,73026.8,-5.75,-6.93,-6.81,0,*5F
1508799717.03,13340,9.44,73048.0,-5.75,-6.73,-6.73,0,*52
1508799718.23,13341,9.44,73040.5,-5.75,-6.73,-6.73,0,*53
1508799719.43,13342,9.5,73048.3,-5.75,-6.73,-6.59,0,*58
1508799720.63,13343,9.44,73042.0,-5.75,-6.73,-6.81,0,*5C
1508799721.83,13344,9.44,73038.5,-5.75,-6.69,-6.73,0,*5D
1508799723.02,13345,9.44,73034.0,-5.75,-6.73,-6.73,0,*57
1508799724.21,13346,9.5,73040.0,-5.75,-6.73,-6.69,0,*5F
1508799725.41,13347,9.44,73040.0,-5.75,-6.69,-6.73,0,*5E
1508799726.6,13348,9.44,73028.0,-5.75,-6.59,-6.69,0,*59
1508799727.79,13349,9.44,73028.3,-5.75,-6.69,-6.69,0,*5B
1508799728.99,13350,9.44,73046.0,-5.75,-6.59,-6.69,0,*50
1508799730.18,13351,9.44,73056.5,-5.75,-6.59,-6.69,0,*51
1508799731.37,13352,9.44,73050.0,-5.75,-6.69,-6.69,0,*51
1508799732.57,13353,9.44,73040.5,-5.75,-6.69,-6.73,0,*5B
1508799733.76,13354,9.44,73034.0,-5.75,-6.69,-6.73,0,*5C
1508799734.95,13355,9.44,73046.0,-5.75,-6.69,-6.69,0,*56
1508799736.15,13356,9.44,73034.8,-5.75,-6.81,-6.73,0,*58
1508799737.37,13357,9.44,73030.5,-5.73,-6.69,-6.81,0,*54
1508799738.59,13358,9.44,73048.8,-5.73,-6.73,-6.73,0,*5D
1508799739.79,13359,9.44,73044.5,-5.75,-6.73,-6.73,0,*5A
1508799740.98,13360,9.44,73030.0,-5.75,-6.73,-6.69,0,*5B
1508799742.2,13361,9.44,73038.0,-5.73,-6.69,-6.59,0,*54
1508799743.39,13362,9.44,73038.0,-5.75,-6.73,-6.69,0,*59
1508799744.59,13363,9.44,73026.0,-5.75,-6.73,-6.73,0,*53
1508799745.79,13364,9.44,73036.8,-5.75,-6.73,-6.73,0,*54
1508799746.98,13365,9.5,73036.8,-5.75,-6.69,-6.59,0,*56
1508799748.18,13366,9.44,73036.3,-5.75,-6.73,-6.73,0,*56
1508799749.4,13367,9.44,73042.8,-5.73,-6.73,-6.81,0,*5C
1508799750.6,13368,9.44,73044.3,-5.75,-6.81,-6.73,0,*55
1508799751.8,13369,9.44,73048.5,-5.75,-6.73,-6.73,0,*59
1508799753.01,13370,9.44,73042.0,-5.75,-6.81,-6.81,0,*51
1508799754.23,13371,9.44,73032.3,-5.73,-6.81,-6.73,0,*5B
1508799755.42,13372,9.44,73040.8,-5.75,-6.69,-6.69,0,*53
1508799756.62,13373,9.44,73050.0,-5.75,-6.81,-6.69,0,*54
1508799757.81,13374,9.44,73050.3,-5.75,-6.59,-6.69,0,*56
1508799759.0,13375,9.44,73046.5,-5.75,-6.69,-6.69,0,*54
1508799760.22,13376,9.44,73044.3,-5.73,-6.69,-6.69,0,*51
1508799761.41,13377,9.44,73046.3,-5.75,-6.69,-6.59,0,*55
1508799762.61,13378,9.44,73054.3,-5.75,-6.59,-6.69,0,*5A
1508799763.8,13379,9.44,73032.0,-5.75,-6.69,-6.73,0,*53
1508799765.02,13380,9.44,73040.5,-5.73,-6.69,-6.73,0,*53
1508799766.21,13381,9.44,73040.0,-5.75,-6.69,-6.59,0,*5C
1508799767.43,13382,9.44,73042.8,-5.73,-6.69,-6.69,0,*5A
1508799768.64,13383,9.44,73044.8,-5.73,-6.73,-6.69,0,*50
1508799769.87,13384,9.44,73048.3,-5.73,-6.81,-6.73,0,*51
1508799771.09,13385,9.44,73048.8,-5.75,-6.85,-6.93,0,*5C
1508799772.34,13386,9.44,73044.8,-5.73,-6.93,-6.85,0,*59
1508799773.53,13387,9.44,73050.3,-5.75,-6.81,-6.69,0,*5F
1508799774.73,13388,9.44,73048.8,-5.75,-6.73,-6.69,0,*5D
1508799775.92,13389,9.44,73038.3,-5.75,-6.73,-6.69,0,*5C
1508799777.13,13390,9.44,73038.0,-5.75,-6.81,-6.81,0,*5F
1508799778.35,13391,9.44,73028.5,-5.73,-6.85,-6.85,0,*58
1508799779.54,13392,9.44,73032.3,-5.75,-6.85,-6.69,0,*5F
1508799780.77,13393,9.44,73036.0,-5.73,-6.81,-6.81,0,*5A
1508799781.98,13394,9.44,73034.8,-5.75,-6.81,-6.81,0,*5B
1508799783.17,13395,9.44,73028.3,-5.75,-6.85,-6.85,0,*5A
1508799784.37,13396,9.44,73022.8,-5.75,-6.85,-6.85,0,*59
1508799785.57,13397,9.44,73024.5,-5.75,-6.85,-6.85,0,*58
1508799786.8,13398,9.44,73020.0,-5.75,-6.93,-6.81,0,*54
1508799788.0,13399,9.44,73024.3,-5.75,-6.85,-6.81,0,*52
1508799789.25,13400,9.44,73030.0,-5.77,-6.97,-6.89,0,*5C
1508799790.47,13401,9.44,73020.5,-5.77,-6.89,-6.85,0,*5E
1508799791.7,13402,9.44,73022.5,-5.77,-6.89,-6.77,0,*50
1508799792.92,13403,9.44,73006.8,-5.77,-6.77,-6.77,0,*50
1508799794.13,13404,9.44,73012.5,-5.75,-6.81,-6.81,0,*55
1508799795.35,13405,9.44,73020.8,-5.77,-6.85,-6.85,0,*56
1508799796.57,13406,9.44,73010.0,-5.77,-6.85,-6.77,0,*58
1508799797.79,13407,9.44,73022.0,-5.77,-6.89,-6.77,0,*55
1508799799.04,13408,9.44,73024.8,-5.77,-6.77,-6.63,0,*5E
1508799800.28,13409,9.44,73008.0,-5.77,-6.63,-6.59,0,*53
1508799801.55,13410,9.44,73010.5,-5.77,-6.63,-6.63,0,*52
1508799802.75,13411,9.44,73022.5,-5.75,-6.69,-6.59,0,*52
1508799803.95,13412,9.44,73022.5,-5.75,-6.73,-6.59,0,*5A
1508799805.17,13413,9.44,73026.8,-5.77,-6.77,-6.77,0,*51
1508799806.42,13414,9.44,73010.5,-5.77,-6.77,-6.63,0,*53
1508799807.65,13415,9.44,73022.3,-5.79,-6.77,-6.63,0,*5C
1508799808.89,13416,9.44,73020.0,-5.77,-6.73,-6.63,0,*55
1508799810.11,13417,9.44,73016.3,-5.77,-6.73,-6.73,0,*55
1508799811.32,13418,9.44,73026.8,-5.75,-6.81,-6.73,0,*55
1508799812.54,13419,9.44,73024.3,-5.77,-6.77,-6.73,0,*5F
1508799813.74,13420,9.44,73028.5,-5.75,-6.77,-6.77,0,*53
1508799814.94,13421,9.44,73024.5,-5.75,-6.85,-6.81,0,*56
1508799816.16,13422,9.44,73034.8,-5.77,-6.85,-6.85,0,*53
1508799817.39,13423,9.44,73040.0,-5.77,-6.77,-6.77,0,*52
1508799818.59,13424,9.44,73038.3,-5.75,-6.73,-6.81,0,*5A
1508799819.79,13425,9.44,73044.3,-5.75,-6.81,-6.73,0,*5B
1508799820.99,13426,9.44,73046.3,-5.75,-6.81,-6.73,0,*58
1508799822.19,13427,9.44,73042.8,-5.75,-6.73,-6.73,0,*54
1508799823.38,13428,9.44,73054.0,-5.75,-6.73,-6.69,0,*50
1508799824.6,13429,9.44,73050.5,-5.73,-6.69,-6.59,0,*5F
1508799825.8,13430,9.44,73048.5,-5.75,-6.73,-6.81,0,*5F
1508799827.0,13431,9.44,73046.5,-5.75,-6.73,-6.73,0,*53
1508799828.2,13432,9.44,73048.5,-5.75,-6.73,-6.81,0,*5D
1508799829.4,13433,9.44,73048.0,-5.75,-6.81,-6.73,0,*5C
1508799830.62,13434,9.44,73044.5,-5.77,-6.89,-6.89,0,*54
1508799831.87,13435,9.44,73038.0,-5.77,-6.97,-6.89,0,*5A
1508799833.1,13436,9.44,73046.8,-5.75,-6.93,-6.85,0,*53
1508799834.33,13437,9.44,73048.0,-5.75,-6.93,-6.81,0,*56
1508799835.55,13438,9.44,73046.3,-5.77,-6.89,-6.77,0,*59
1508799836.75,13439,9.44,73046.8,-5.79,-6.73,-6.73,0,*57
1508799837.97,13440,9.44,73036.5,-5.77,-6.77,-6.73,0,*53
1508799839.17,13441,9.44,73046.8,-5.75,-6.81,-6.73,0,*59
1508799840.37,13442,9.44,73058.3,-5.75,-6.81,-6.73,0,*5A
1508799841.6,13443,9.44,73042.8,-5.79,-6.73,-6.63,0,*5B
1508799842.82,13444,9.44,73036.0,-5.77,-6.77,-6.77,0,*53
1508799844.02,13445,9.44,73058.3,-5.75,-6.69,-6.73,0,*5B
1508799845.27,13446,9.44,73038.5,-5.77,-6.77,-6.63,0,*54
1508799846.49,13447,9.44,73036.3,-5.77,-6.77,-6.77,0,*50
1508799847.69,13448,9.44,73048.0,-5.75,-6.81,-6.73,0,*50
1508799848.9,13449,9.44,73038.0,-5.75,-6.81,-6.81,0,*5C
1508799850.1,13450,9.44,73054.8,-5.75,-6.81,-6.85,0,*50
1508799851.35,13451,9.44,73052.3,-5.75,-6.97,-6.93,0,*51
1508799852.55,13452,9.44,73050.8,-5.75,-6.85,-6.85,0,*56
1508799853.77,13453,9.44,73052.8,-5.77,-6.89,-6.89,0,*55
1508799854.96,13454,9.44,73058.3,-5.75,-6.73,-6.73,0,*50
1508799856.16,13455,9.44,73056.8,-5.75,-6.81,-6.73,0,*5C
1508799857.36,13456,9.44,73044.3,-5.75,-6.73,-6.73,0,*52
1508799858.56,13457,9.44,73056.5,-5.75,-6.85,-6.73,0,*5A
1508799859.75,13458,9.44,73050.3,-5.75,-6.85,-6.73,0,*55
1508799860.96,13459,9.5,73058.0,-5.75,-6.85,-6.81,0,*59
1508799862.16,13460,9.44,73062.0,-5.75,-6.85,-6.81,0,*53
1508799863.36,13461,9.44,73048.8,-5.75,-6.85,-6.73,0,*5F
1508799864.58,13462,9.44,73044.3,-5.77,-6.77,-6.85,0,*5A
1508799865.78,13463,9.44,73060.8,-5.79,-6.77,-6.73,0,*5C
1508799866.98,13464,9.44,73064.5,-5.75,-6.73,-6.73,0,*53
1508799868.17,13465,9.44,73046.8,-5.75,-6.73,-6.73,0,*52
1508799869.38,13466,9.44,73028.3,-5.75,-6.81,-6.81,0,*51
1508799870.58,13467,9.44,73054.0,-5.75,-6.81,-6.85,0,*54
1508799871.78,13468,9.44,73040.8,-5.75,-6.81,-6.85,0,*5B
1508799872.98,13469,9.44,73040.8,-5.75,-6.73,-6.73,0,*5E
1508799874.18,13470,9.44,73048.0,-5.75,-6.81,-6.73,0,*5B
1508799875.39,13471,9.44,73038.3,-5.75,-6.81,-6.81,0,*57
1508799876.59,13472,9.44,73036.8,-5.75,-6.73,-6.81,0,*59
1508799877.79,13473,9.44,73046.8,-5.75,-6.73,-6.81,0,*58
1508799879.01,13474,9.44,73044.5,-5.75,-6.85,-6.93,0,*55
1508799880.26,13475,9.44,73048.0,-5.75,-6.97,-7.05,0,*59
1508799881.52,13476,9.44,73048.5,-5.73,-7.05,-7.05,0,*56
1508799882.73,13477,9.44,73050.8,-5.75,-7.11,-7.11,0,*51
1508799883.95,13478,9.44,73046.5,-5.75,-7.23,-7.31,0,*5D
1508799885.18,13479,9.44,73048.0,-5.75,-7.05,-7.11,0,*5A
1508799886.43,13480,9.44,73034.0,-5.77,-7.11,-7.01,0,*5A
1508799887.66,13481,9.44,73050.8,-5.77,-7.15,-7.15,0,*5A
1508799888.9,13482,9.44,73044.0,-5.77,-7.15,-7.01,0,*5C
1508799890.15,13483,9.44,73058.8,-5.77,-7.11,-7.01,0,*59
1508799891.42,13484,9.44,73034.3,-5.77,-7.01,-7.01,0,*5F
1508799892.63,13485,9.44,73048.3,-5.79,-7.11,-7.11,0,*50
1508799893.86,13486,9.44,73062.0,-5.79,-7.11,-7.01,0,*52
1508799895.11,13487,9.44,73048.0,-5.77,-7.11,-6.97,0,*53
1508799896.36,13488,9.44,73040.8,-5.77,-7.11,-7.01,0,*52
1508799897.63,13489,9.44,73042.0,-5.77,-6.97,-7.01,0,*5C
1508799898.88,13490,9.44,73046.0,-5.77,-7.11,-7.01,0,*5B
1508799900.15,13491,9.44,73042.0,-5.77,-7.01,-7.01,0,*5B
1508799901.36,13492,9.44,73044.3,-5.79,-7.11,-7.15,0,*52
1508799902.56,13493,9.44,73032.5,-5.79,-7.15,-7.15,0,*57
1508799903.81,13494,9.44,73030.8,-5.77,-7.01,-7.11,0,*5F
1508799905.04,13495,9.44,73032.0,-5.77,-7.11,-7.15,0,*5B
1508799906.31,13496,9.44,73026.3,-5.77,-7.27,-7.35,0,*5F
1508799907.56,13497,9.44,73018.5,-5.77,-7.35,-7.23,0,*5A
1508799908.81,13498,9.44,73030.0,-5.77,-7.01,-7.15,0,*57
1508799910.06,13499,9.44,73012.5,-5.77,-7.01,-7.11,0,*52
1508799911.29,13500,9.44,73022.5,-5.77,-7.11,-7.11,0,*52
1508799912.52,13501,9.44,73016.5,-5.79,-7.01,-7.11,0,*5C
1508799913.72,13502,9.44,73022.5,-5.79,-7.15,-7.11,0,*5A
1508799914.95,13503,9.44,73008.8,-5.77,-7.11,-7.23,0,*50
1508799916.16,13504,9.44,73008.0,-5.79,-7.23,-7.15,0,*5D
1508799917.38,13505,9.44,73010.0,-5.79,-7.27,-7.23,0,*5D
1508799918.58,13506,9.44,73010.0,-5.79,-7.23,-7.23,0,*5A
1508799919.78,13507,9.44,73028.3,-5.79,-7.15,-7.15,0,*5B
1508799921.01,13508,9.44,73002.0,-5.77,-7.15,-7.11,0,*5E
1508799922.24,13509,9.44,73012.0,-5.79,-7.01,-7.11,0,*54
1508799923.47,13510,9.44,72992.8,-5.79,-7.01,-7.11,0,*5C
1508799924.7,13511,9.44,73000.5,-5.77,-7.15,-7.11,0,*56
1508799925.9,13512,9.44,73012.5,-5.79,-7.15,-7.11,0,*5B
1508799927.11,13513,9.44,73004.8,-5.79,-7.23,-7.23,0,*5E
1508799928.31,13514,9.44,73008.3,-5.79,-7.15,-7.23,0,*5C
1508799929.56,13515,9.44,73004.8,-5.79,-7.01,-6.97,0,*56
1508799930.79,13516,9.44,73014.0,-5.79,-7.01,-7.11,0,*5A
1508799932.06,13517,9.44,73014.0,-5.77,-7.01,-7.01,0,*54
1508799933.26,13518,9.44,73012.3,-5.83,-7.19,-7.15,0,*5C
1508799934.46,13519,9.44,73016.5,-5.79,-7.15,-7.15,0,*54
1508799935.66,13520,9.44,73022.5,-5.79,-7.15,-7.23,0,*5B
1508799936.86,13521,9.44,73026.3,-5.79,-7.15,-7.15,0,*5F
1508799938.09,13522,9.44,73040.8,-5.79,-7.01,-7.11,0,*5D
1508799939.32,13523,9.44,73040.0,-5.77,-7.11,-7.15,0,*57
1508799940.57,13524,9.44,73032.5,-5.79,-7.01,-7.01,0,*5A
1508799941.76,13525,9.44,73030.0,-5.79,-6.89,-6.89,0,*5B
1508799942.96,13526,9.44,73034.3,-5.79,-6.89,-6.85,0,*54
1508799944.18,13527,9.44,73024.0,-5.77,-6.85,-6.85,0,*57
1508799945.41,13528,9.44,73038.0,-5.79,-6.97,-6.89,0,*59
1508799946.63,13529,9.44,73040.0,-5.79,-6.89,-6.97,0,*58
1508799947.83,13530,9.44,73030.3,-5.79,-6.89,-6.77,0,*5E
1508799949.03,13531,9.44,73008.0,-5.79,-6.85,-6.85,0,*5E
1508799950.22,13532,9.44,73026.0,-5.83,-6.81,-6.89,0,*50
1508799951.42,13533,9.44,73030.3,-5.79,-6.85,-6.85,0,*5C
1508799952.65,13534,9.44,73032.8,-5.79,-6.97,-6.89,0,*54
1508799953.87,13535,9.44,73040.0,-5.83,-6.89,-6.93,0,*54
1508799955.09,13536,9.44,73042.3,-5.83,-7.01,-6.89,0,*5D
1508799956.29,13537,9.44,73030.8,-5.79,-6.77,-6.77,0,*58
1508799957.49,13538,9.44,73036.8,-5.79,-6.77,-6.73,0,*53
1508799958.74,13539,9.44,73030.3,-5.77,-6.77,-6.63,0,*5D
1508799959.96,13540,9.44,73038.5,-5.79,-6.73,-6.63,0,*59
1508799961.16,13541,9.44,73038.8,-5.79,-6.73,-6.73,0,*59
1508799962.38,13542,9.44,73046.5,-5.79,-6.73,-6.63,0,*5B
1508799963.63,13543,9.44,73048.0,-5.79,-6.63,-6.63,0,*5B
1508799964.87,13544,9.44,73038.5,-5.79,-6.63,-6.63,0,*5C
1508799966.11,13545,9.44,73034.5,-5.79,-6.63,-6.63,0,*5D
1508799967.31,13546,9.44,73042.3,-5.79,-6.73,-6.73,0,*5E
1508799968.53,13547,9.44,73038.8,-5.79,-6.73,-6.63,0,*5E
1508799969.75,13548,9.44,73048.3,-5.77,-6.73,-6.73,0,*5E
1508799970.95,13549,9.44,73042.5,-5.79,-6.85,-6.77,0,*5C
1508799972.15,13550,9.44,73034.8,-5.79,-6.77,-6.77,0,*59
1508799973.35,13551,9.44,73044.8,-5.79,-6.77,-6.85,0,*55
1508799974.57,13552,9.44,73046.8,-5.77,-6.89,-6.85,0,*59
1508799975.77,13553,9.44,73028.0,-5.79,-6.89,-6.85,0,*56
1508799976.97,13554,9.44,73040.8,-5.79,-6.85,-6.73,0,*54
1508799978.17,13555,9.44,73048.3,-5.79,-6.73,-6.73,0,*5C
1508799979.39,13556,9.44,73050.5,-5.77,-6.77,-6.73,0,*55
1508799980.62,13557,9.44,73028.5,-5.79,-6.77,-6.63,0,*5B
1508799981.81,13558,9.44,73028.8,-5.79,-6.73,-6.73,0,*51
1508799983.01,13559,9.44,73038.5,-5.79,-6.85,-6.77,0,*5D
1508799984.23,13560,9.44,73048.3,-5.77,-6.73,-6.73,0,*54
1508799985.45,13561,9.44,73058.8,-5.79,-6.85,-6.63,0,*53
1508799986.67,13562,9.44,73036.0,-5.77,-6.85,-6.73,0,*5F
1508799987.9,13563,9.44,73038.0,-5.77,-6.77,-6.73,0,*53
1508799989.1,13564,9.44,73048.0,-5.79,-6.77,-6.77,0,*5E
1508799990.3,13565,9.44,73050.5,-5.75,-6.81,-6.73,0,*5E
1508799991.5,13566,9.44,73038.3,-5.79,-6.85,-6.77,0,*51
1508799992.69,13567,9.44,73032.0,-5.79,-6.85,-6.85,0,*5D
1508799993.92,13568,9.44,73036.5,-5.77,-6.89,-6.77,0,*5D
1508799995.14,13569,9.44,73048.0,-5.79,-6.97,-6.89,0,*5C
1508799996.39,13570,9.44,73052.3,-5.79,-7.01,-6.97,0,*55
1508799997.66,13571,9.44,73040.8,-5.77,-6.97,-6.97,0,*54
1508799998.91,13572,9.44,73040.5,-5.79,-6.97,-6.97,0,*59
1508800000.13,13573,9.44,73044.5,-5.77,-6.89,-6.77,0,*57
1508800001.36,13574,9.44,73046.0,-5.77,-6.77,-6.73,0,*55
1508800002.58,13575,9.44,73046.0,-5.79,-6.97,-6.73,0,*54
1508800003.81,13576,9.44,73046.8,-5.79,-6.97,-6.77,0,*53
1508800005.03,13577,9.44,73038.0,-5.77,-6.85,-6.77,0,*5F
1508800006.25,13578,9.44,73058.5,-5.77,-6.89,-6.85,0,*51
1508800007.48,13579,9.44,73042.3,-5.79,-6.85,-6.63,0,*5A
1508800008.7,13580,9.44,73046.3,-5.79,-6.73,-6.63,0,*55
1508800009.92,13581,9.44,73044.0,-5.79,-6.73,-6.63,0,*54
1508800011.12,13582,9.44,73036.0,-5.79,-6.77,-6.73,0,*52
1508800012.37,13583,9.44,73046.8,-5.77,-6.73,-6.63,0,*58
1508800013.59,13584,9.44,73042.3,-5.79,-6.73,-6.63,0,*51
1508800014.79,13585,9.44,73040.5,-5.79,-6.77,-6.73,0,*55
1508800016.01,13586,9.44,73040.0,-5.77,-6.85,-6.73,0,*55
1508800017.21,13587,9.44,73042.5,-5.79,-6.85,-6.73,0,*5A
1508800018.41,13588,9.44,73038.3,-5.79,-6.73,-6.73,0,*5C
1508800019.6,13589,9.44,73034.0,-5.79,-6.85,-6.77,0,*50
1508800020.81,13590,9.44,73034.0,-5.79,-6.77,-6.85,0,*58
1508800022.0,13591,9.44,73022.0,-5.79,-6.85,-6.77,0,*59
1508800023.2,13592,9.44,73024.5,-5.79,-6.89,-6.89,0,*57
1508800024.42,13593,9.44,73036.5,-5.79,-6.89,-6.97,0,*59
1508800025.67,13594,9.44,73038.0,-5.79,-7.01,-6.97,0,*5F
1508800026.92,13595,9.44,73024.8,-5.77,-7.11,-6.97,0,*51
1508800028.19,13596,9.44,73050.5,-5.77,-7.01,-6.97,0,*53
1508800029.42,13597,9.44,73050.0,-5.79,-7.11,-6.97,0,*5D
1508800030.64,13598,9.44,73040.0,-5.79,-7.01,-6.89,0,*5C
1508800031.89,13599,9.44,73050.3,-5.77,-7.01,-7.11,0,*53
1508800033.13,13600,9.44,73036.5,-5.77,-7.11,-7.11,0,*51
1508800034.37,13601,9.44,73038.8,-5.79,-7.01,-6.97,0,*50
1508800035.62,13602,9.44,73048.3,-5.77,-7.11,-6.97,0,*5C
1508800036.9,13603,9.44,73052.5,-5.77,-7.01,-6.97,0,*5C
1508800038.17,13604,9.44,73050.3,-5.77,-7.01,-6.97,0,*5B
1508800039.41,13605,9.44,73040.8,-5.77,-7.01,-6.89,0,*55
1508800040.69,13606,9.44,73038.3,-5.77,-6.97,-6.97,0,*57
1508800041.96,13607,9.44,73042.0,-5.77,-6.97,-6.97,0,*56
1508800043.19,13608,9.44,73046.3,-5.77,-7.11,-7.11,0,*59
1508800044.4,13609,9.44,73038.8,-5.79,-7.11,-7.11,0,*56
1508800045.6,13610,9.44,73046.0,-5.79,-7.15,-7.23,0,*5B
1508800046.85,13611,9.44,73050.5,-5.77,-7.15,-7.01,0,*54
1508800048.1,13612,9.44,73056.8,-5.77,-7.11,-6.97,0,*5D
1508800049.32,13613,9.44,73026.3,-5.79,-7.23,-7.01,0,*5D
1508800050.55,13614,9.44,73026.8,-5.77,-7.15,-7.15,0,*54
1508800051.82,13615,9.44,73032.0,-5.77,-7.01,-7.01,0,*55
1508800053.05,13616,9.44,73032.3,-5.77,-7.11,-7.11,0,*56
1508800054.25,13617,9.44,73032.0,-5.79,-7.23,-7.23,0,*59
1508800055.5,13618,9.44,73026.0,-5.79,-7.35,-7.35,0,*56
1508800056.73,13619,9.44,73022.0,-5.79,-7.23,-7.27,0,*53
1508800057.93,13620,9.44,73032.5,-5.79,-7.15,-7.15,0,*5D
1508800059.16,13621,9.44,73016.3,-5.77,-7.15,-7.15,0,*52
1508800060.36,13622,9.44,73006.8,-5.79,-7.15,-7.23,0,*5A
1508800061.56,13623,9.44,73022.5,-5.83,-7.19,-7.19,0,*5B
1508800062.77,13624,9.44,73014.8,-5.79,-7.11,-7.23,0,*58
1508800063.97,13625,9.44,73020.0,-5.79,-7.23,-7.23,0,*58
1508800065.18,13626,9.44,73020.8,-5.75,-7.11,-7.11,0,*57
1508800066.38,13627,9.44,73022.0,-5.79,-7.23,-7.15,0,*5F
1508800067.63,13628,9.44,73018.8,-5.79,-7.01,-7.01,0,*55
1508800068.85,13629,9.44,73010.0,-5.79,-7.01,-7.15,0,*51
1508800070.06,13630,9.44,73008.3,-5.79,-7.11,-7.23,0,*5D
1508800071.26,13631,9.44,73014.3,-5.79,-7.15,-7.15,0,*5D
1508800072.47,13632,9.44,73024.0,-5.79,-7.11,-7.15,0,*5A
1508800073.67,13633,9.44,73024.3,-5.79,-7.15,-7.15,0,*5F
1508800074.89,13634,9.44,73042.0,-5.83,-7.19,-7.27,0,*50
1508800076.14,13635,9.44,73034.0,-5.83,-7.31,-7.31,0,*5C
1508800077.33,13636,9.44,73018.5,-5.83,-7.15,-7.19,0,*53
1508800078.56,13637,9.44,73012.8,-5.79,-7.01,-7.11,0,*5A
1508800079.79,13638,9.44,73008.3,-5.79,-7.11,-7.01,0,*55
1508800081.04,13639,9.44,73020.0,-5.79,-7.01,-7.01,0,*55
1508800082.27,13640,9.44,73016.0,-5.83,-7.05,-7.05,0,*5E
1508800083.51,13641,9.44,73032.5,-5.83,-7.05,-7.05,0,*5F
1508800084.75,13642,9.44,73022.5,-5.83,-7.05,-7.01,0,*58
1508800085.97,13643,9.44,73022.5,-5.83,-7.19,-7.05,0,*50
1508800087.2,13644,9.44,73026.0,-5.79,-7.11,-6.97,0,*50
1508800088.45,13645,9.44,73034.5,-5.79,-7.01,-6.97,0,*50
1508800089.64,13646,9.44,73022.8,-5.83,-7.15,-6.89,0,*5C
1508800090.89,13647,9.44,73024.8,-5.83,-7.01,-6.93,0,*53
1508800092.08,13648,9.44,73028.8,-5.79,-6.85,-6.85,0,*53
1508800093.31,13649,9.44,73018.5,-5.77,-6.89,-6.77,0,*5D
1508800094.51,13650,9.44,73018.3,-5.83,-6.89,-6.81,0,*57
1508800095.73,13651,9.44,73016.0,-5.83,-6.89,-6.93,0,*55
1508800096.97,13652,9.44,73018.8,-5.83,-7.01,-6.93,0,*57
1508800098.21,13653,9.44,73024.8,-5.83,-7.01,-7.01,0,*5C
1508800099.46,13654,9.44,73044.0,-5.83,-6.93,-7.01,0,*51
1508800100.7,13655,9.44,73014.3,-5.83,-7.05,-7.05,0,*5A
1508800101.94,13656,9.44,73030.8,-5.83,-7.05,-7.01,0,*5D
1508800103.19,13657,9.44,73020.0,-5.83,-7.01,-7.01,0,*58
1508800104.45,13658,9.44,73026.3,-5.85,-7.01,-7.01,0,*51
1508800105.68,13659,9.44,73024.0,-5.85,-6.89,-6.81,0,*58
1508800106.88,13660,9.44,73022.8,-5.83,-6.81,-6.81,0,*5C
1508800108.08,13661,9.44,73034.8,-5.83,-6.77,-6.77,0,*5D
1508800109.27,13662,9.44,73026.5,-5.83,-6.69,-6.69,0,*5E
1508800110.47,13663,9.44,73030.8,-5.83,-6.81,-6.77,0,*56
1508800111.67,13664,9.44,73032.0,-5.83,-6.81,-6.81,0,*58
1508800112.88,13665,9.44,73034.5,-5.83,-6.81,-6.81,0,*59
1508800114.12,13666,9.44,73060.5,-5.83,-6.93,-7.01,0,*50